Overview Statistics Trail Chart Weather Telemetry Raw packets
 

This is the latest recevied weather packets stored in our database for station/object N6GPM. If no packets are shown the sender has not sent any weather packets the latest 10 day(s).

<< 44 45 46 47 48 49 50 >>
Time Temp. Humidity Pressure Rain* Wind** Luminosity Snow
1788377315 27.22° C 33% 1019.7 hPa 0 mm - 983 W/m² -
1788377013 26.67° C 32% 1020 hPa 0 mm - 981 W/m² -
1788376708 26.67° C 33% 1020 hPa 0 mm - 980 W/m² -
1788376404 26.11° C 35% 1020 hPa 0 mm - 974 W/m² -
1788376099 26.11° C 35% 1020.1 hPa 0 mm - 972 W/m² -
1788375798 26.67° C 34% 1020 hPa 0 mm - 967 W/m² -
1788375494 26.11° C 35% 1020.2 hPa 0 mm - 961 W/m² -
1788375189 26.11° C 37% 1020.3 hPa 0 mm - 956 W/m² -
1788374885 26.67° C 35% 1020 hPa 0 mm - 952 W/m² -
1788374580 26.67° C 34% 1020.2 hPa 0 mm - 948 W/m² -
1788374275 27.22° C 33% 1020.1 hPa 0 mm - 945 W/m² -
1788373972 26.67° C 30% 1020.2 hPa 0 mm - 938 W/m² -
1788373668 27.22° C 31% 1020.1 hPa 0 mm - 928 W/m² -
1788373364 26.67° C 35% 1020.3 hPa 0 mm - 919 W/m² -
1788373060 27.78° C 18% 1020.4 hPa 0 mm - 913 W/m² -
1788372760 27.22° C 19% 1020.2 hPa 0 mm - 903 W/m² -
1788372455 27.22° C 18% 1020.4 hPa 0 mm - 890 W/m² -
1788372150 27.22° C 16% 1020.2 hPa 0 mm - 884 W/m² -
1788371845 26.67° C 21% 1020.2 hPa 0 mm - 871 W/m² -
1788371541 26.67° C 26% 1020.2 hPa 0 mm - 856 W/m² -
1788371237 25.56° C 27% 1020.4 hPa 0 mm - 845 W/m² -
1788370933 26.11° C 26% 1020.3 hPa 0 mm - 833 W/m² -
1788370628 25.56° C 30% 1020.2 hPa 0 mm - 820 W/m² -
1788370322 25.56° C 29% 1020.3 hPa 0 mm - 803 W/m² -
1788370017 25° C 31% 1020.2 hPa 0 mm - 790 W/m² -

* Rain latest hour (hover to see other rain measurements)
** Current wind speed in m/s (hover to see current wind gust speed)